User: anonymous   Login
Location: Belfast
(54.5830°N, 5.9330°W)
Time: 08:52:57
(UTC+01:00)
Language:

Coronas F rocket - Orbit

View from above orbital plane
View from above orbital plane
View from above satellite
View from above satellite

Ground track
Ground track

The orbit data is extracted from the following two-line orbital elements,

1 26874U 01032B   16210.61736372  .00016396  00000-0  76861-4 0  9995
2 26874  82.4579 236.4235 0007461  59.8225 300.3782 15.82977646842190
Epoch (UTC): 28 July 2016 14:49:00
Eccentricity: 0.0007461
inclination: 82.4579°
perigee height: 317 km
apogee height: 327 km
right ascension of ascending node: 236.4235°
argument of perigee: 59.8225°
revolutions per day: 15.82977646
mean anomaly at epoch: 300.3782°
orbit number at epoch: 84219

The dashed part of the orbit path shows where the satellite is in the earth's shadow,  

DLR